Regional Weather Roundup
Issued by NWS

Home | Current Version | Previous Version | Graphics & Text | Print | Product List | Glossary On
Versions: 1 2 3 4 5 6 7 8 9 10 11 12 13 14 15 16 17 18 19 20 21 22 23 24 25 26 27 28 29 30 31 32 33 34 35 36 37 38 39 40 41 42 43 44 45 46 47 48 49 50
000
ASUS43 KMKX 282110
RWRWI

WISCONSIN REGIONAL WEATHER ROUNDUP
NATIONAL WEATHER SERVICE MILWAUKEE/SULLIVAN WI
400 PM CDT SAT MAR 28 2015

NOTE: "FAIR" INDICATES FEW OR NO CLOUDS BELOW 12,000 FEET WITH NO
SIGNIFICANT WEATHER AND/OR OBSTRUCTIONS TO VISIBILITY.

WIZ001-002-006>008-014>016-023>028-282200-
NORTHWEST WISCONSIN

CITY           SKY/WX    TMP DP  RH WIND       PRES   REMARKS
SUPERIOR ARPT  SUNNY     44   9  23 SW17G24   30.07F
ASHLAND        SUNNY     45   6  20 SW14G22   30.10F
HAYWARD        SUNNY     41   9  26 S16G22    30.10F
SIREN          SUNNY     42   7  23 SW13G21   30.11F
CUMBERLAND     SUNNY     39  10  30 SW13      30.12F WCI  32
RICE LAKE      SUNNY     42   5  21 SW15G21   30.16S
CHETEK         SUNNY     42   9  26 S13       30.14F
LADYSMITH      SUNNY     42  10  28 S13G18    30.16F
EAU CLAIRE     SUNNY     43   8  23 SW10G20   30.16F
MENOMONIE      SUNNY     42   6  23 SW14      30.17F
NEW RICHMOND   SUNNY     41  12  31 S14G20    30.15F
OSCEOLA        SUNNY     43  14  31 S16       30.17F
$$

WIZ003>005-009-010-017-018-282200-
NORTH CENTRAL WISCONSIN

CITY           SKY/WX    TMP DP  RH WIND       PRES   REMARKS
MANITOWISH WTR SUNNY     39   9  28 SW15G21   30.10F WCI  30
ARBOR VITAE    SUNNY     40  10  29 SW8       30.10F WCI  34
WOODRUFF       SUNNY     40  10  29 SW8       30.10F WCI  34
RHINELANDER    SUNNY     39   9  29 SW10G20   30.13F WCI  32
EAGLE RIVER    SUNNY     38   6  26 SW9G18    30.10F WCI  32
LAND O LAKES   SUNNY     39   3  21 SW9G17    30.11F WCI  33
PHILLIPS       SUNNY     38   9  29 SW12G17   30.12F WCI  31
TOMAHAWK       SUNNY     38  10  31 CALM      30.15F
MEDFORD        SUNNY     36  14  40 S10       30.15F WCI  29
MERRILL        SUNNY     39  13  34 SW9       30.17S WCI  33
$$

WIZ029-030-035-036-043>047-282200-
CENTRAL WISCONSIN

CITY           SKY/WX    TMP DP  RH WIND       PRES   REMARKS
WAUSAU         SUNNY     39   9  29 SW12      30.16F WCI  32
MOSINEE        SUNNY     37  10  32 S12G20    30.19F WCI  30
MARSHFIELD     SUNNY     42   8  24 S13       30.17F
STEVENS POINT  SUNNY     39   8  28 SW10      30.19F WCI  32
WAUPACA        SUNNY     44   4  19 S7        30.21F
WAUTOMA        SUNNY     42   8  24 S10       30.22F
WISC RAPIDS    SUNNY     41   3  20 SW12      30.21F
CAMP DOUGLAS   SUNNY     41   9  26 SW13      30.20F
$$

WIZ011>013-019>022-031-037>040-048>050-282200-
NORTHEAST WISCONSIN

CITY           SKY/WX    TMP DP  RH WIND       PRES   REMARKS
ANTIGO         SUNNY     36  13  39 SW12G20   30.16F WCI  28
SHAWANO        SUNNY     41  12  30 SW5       30.21F
OCONTO         SUNNY     37  17  44 S10       30.22F WCI  30
STURGEON BAY   MOSUNNY   34  21  60 S12G17    30.26F WCI  25
GREEN BAY      SUNNY     37  19  48 SW10G18   30.24F WCI  30
MANITOWOC      SUNNY     33  24  69 S16       30.27F WCI  23
APPLETON       SUNNY     37  10  32 S14       30.23F WCI  29
CLINTONVILLE   SUNNY     41  10  28 SW12G17   30.21F
OSHKOSH        SUNNY     39  11  31 S9G22     30.24F WCI  33
$$

WIZ032>034-041-042-053>061-282200-
SOUTHWEST WISCONSIN

CITY           SKY/WX    TMP DP  RH WIND       PRES   REMARKS
LA CROSSE      SUNNY     43  11  27 S9        30.22F
SPARTA         SUNNY     41   8  26 SW8       30.22F
VIROQUA        SUNNY     37  13  37 S9        30.21F WCI  30
BOSCOBEL       SUNNY     40  14  34 S10G16    30.26F WCI  33
PRAIRIE DU CHI SUNNY     39  11  31 S5        30.24F
PLATTEVILLE    SUNNY     39  12  33 S7        30.25F WCI  34
$$

WIZ056-057-062-063-064-067-068-282200-
SOUTH CENTRAL WISCONSIN

CITY           SKY/WX    TMP DP  RH WIND       PRES   REMARKS
REEDSBURG      SUNNY     39  13  34 S13G18    30.24S WCI  31
BARABOO/DELLS  SUNNY     39   9  29 SW12      30.23F WCI  32
LONE ROCK      SUNNY     39  13  34 S13       30.26F WCI  31
MINERAL POINT  SUNNY     37  14  38 CALM      30.24F
MADISON        SUNNY     37   9  31 SW8       30.26F WCI  31
MIDDLETON      SUNNY     39   7  26 S9G16     30.26F WCI  33
WATERTOWN      SUNNY     38  10  30 S7        30.26S WCI  33
MONROE         SUNNY     37  14  38 S5        30.25F WCI  34
JANESVILLE     SUNNY     41   9  26 SW8       30.27F
$$

WIZ051-052-058>065-066-070>072-282200-
SOUTHEAST WISCONSIN

CITY           SKY/WX    TMP DP  RH WIND       PRES   REMARKS
MILWAUKEE      MOSUNNY   34  10  37 SE14      30.29F WCI  25
WAUKESHA       MOSUNNY   37  10  32 SW9       30.27F WCI  31
MILWAUKEE/TIMM SUNNY     36  14  41 SE9       30.28F WCI  29
RACINE         SUNNY     31  12  45 SE12      30.32S WCI  22
BURLINGTON     SUNNY     38  12  35 W6        30.27F WCI  33
KENOSHA        SUNNY     33  14  45 SE9       30.30S WCI  25
FOND DU LAC    SUNNY     39   7  26 W9        30.24F WCI  33
SHEBOYGAN      SUNNY     35  21  56 S15       30.26F WCI  25
WEST BEND      SUNNY     37   9  30 W9        30.25S WCI  31
JUNEAU         SUNNY     37  10  32 W7        30.26F WCI  32
$$

LSZ147-162-282200-
LAKE SUPERIOR

STATION/POSITION TIME  TEMP    WIND        PRES    WAVE
                       AIR SEA DIR/SP/G            HT/PER
                 (UTC) (F)     (DEG/KT/KT) (MB)    (FT/S)
DEVILS ISLAND    2100   31      80/  6/  7 1020.3F
PORT WING        2000   33      20/  8/  8 1020.0F
SAXON HARBOR     2000   34      50/  8/ 11 1020.0
$$

LMZ867-665-643>646-282200-
LAKE MICHIGAN

STATION/POSITION TIME  TEMP    WIND        PRES    WAVE
                       AIR SEA DIR/SP/G            HT/PER
                 (UTC) (F)     (DEG/KT/KT) (MB)    (FT/S)
NORTHPORT PIER   2000   28     150/ 11/ 17 1024.4F
SISTER BAY       1917   41     270/ 10/ 12   N/A
KEWAUNEE LAKESHO 2000   29     170/ 14/ 17 1024.3F
SHEBOYGAN LAKESH 2100   29     150/ 16/ 17 1026.4F
PORT WASHINGTON  2000   31     160/ 10/ 12 1026.8
MILWAUKEE LAKESH 2000   28     140/ 12/ 14   N/A
KENOSHA   LAKESH 2100   30     140/ 10/ 11 1026.4S
$$

TC  - TEMPERATURE IN CELSIUS
VSB - VISIBILITY IN STATUTE MILES
WCI - WIND CHILL INDEX
HX  - HEAT INDEX



USA.gov is the U.S. government's official web portal to all federal, state and local government web resources and services.